sat.trackr.live / text

‹ back to catalog

GHOST-4

NORAD 59133 · 2024-043AM

PAYLOAD ACTIVE UNKNOWN

§ Identity

Operator
Country
US
Launch date
2024-03-04
Launch site
AFWTR
Launch vehicle
Mass (kg)
RCS (m²)

External: N2YO · Heavens-Above · Gunter

§ Orbital elements

Epoch: 2026-05-25T03:45:15.475104Z

Period
93.34 min
Inclination
97.5575°
Eccentricity
0.0006845
Mean motion
15.42670506 rev/d
Perigee alt
433.6 km
Apogee alt
442.9 km
Semi-major
6,816.4 km
B*
2.9989e-4
RAAN
289.2470°
Arg perigee
300.5013°
Mean anomaly
59.5558°
Rev number
12,398

§ Raw data

GHOST-41 59133U 24043AM  26145.15642911  .00012997  00000+0  29989-3 0  99982 59133  97.5575 289.2470 0006845 300.5013  59.5558 15.42670506123984

JSON: /api/v1/satellites/59133 · /tle

For live sub-satellite position, see the globe view (requires WebGL).

§ Visibility from observer

Set your observer location to see the next 7 days of passes ≥ 10°. The values pass through the URL so the page stays shareable.

No JS? Fill the form by hand. The geolocation button needs JavaScript.

§ Radio — SatNOGS DB

ModeDescriptionDownlinkUplink
FSK LoRa 400.500 MHz

1 transmitter · refreshed weekly from db.satnogs.org